Location: *
(43.9905°S, 176.4941°W)
Time: 19:46:44
(UTC+00:00)

Cosmos 1437 Rocket - Pass Details

Date: 08 December 2019
Orbit: 506 x 563 km, 81.2° (Epoch: 18 January)

Event Time Altitude Azimuth Distance (km) Brightness Sun altitude
Rises 09:23:01 0° 201° (SSW) 2,678 8.0 -16.5°
Reaches altitude 10° 09:25:21 10° 212° (SSW) 1,788 6.8 -16.7°
Maximum altitude 09:28:45 29° 272° (W) 1,010 4.4 -17.1°
Enters shadow 09:31:30 14° 327° (NNW) 1,560 4.9 -17.3°
